ORBCOMM FM106 [-] (40088 NORAD) Tracking and Keplerian Element Data

This shows tracking and keplerian element data for the satellite.

Feedback or suggestion? Click here.




ElementValue
Catalog40088
NameORBCOMM FM106 [-]
Epoch Orbit23495
Epoch Day348.59801792
Epoch Year2018
RAAN22.3798
Inclination47.0652
Eccentricity0.0022242
Argument of Perigee247.9042
Mean Anonmoly111.9485
Mean Motion14.63871143
Decay Rate-6.8E-07
L11 40088U 14040C 18348.59801792 -.00000068 00000-0 21683-4 0 9993
L22 40088 47.0652 22.3798 0022242 247.9042 111.9485 14.63871143234957

Live tracking and technical data element details for ORBCOMM FM106 [-] (NORAD 40088). ORBCOMM FM106 [-] can be tracked NOW for your location showing map with azimuth and elevation plus other details from your city location.

Track the satellite on the map from your city or location and see movement details for azimuth, elevation, latitude, longitude, range, height, and movement on the map or in text.







IsCatalogInMostPopularTable: catalog: 40088, numindb: 94
Update: records affected: 1



GetName: 40088 ORBCOMM FM106 [-]

Hit Count: updated at: Sat, 15 Dec 2018 13:59:13 GMT